Change the Weather History Date:

Friday, May 16, 2014

  Actual Average Record
Temperature  
Mean Temperature 60 °F -  
Max Temperature 84 °F - - ()
Min Temperature 39 °F - - ()
Degree Days  
Heating Degree Days 6    
Growing Degree Days 10 (Base 50)    
Moisture  
Dew Point 18 °F    
Average Humidity 20    
Maximum Humidity 33    
Minimum Humidity 10    
Precipitation  
Precipitation 0.00 in - - ()
Sea Level Pressure  
Sea Level Pressure 30.18 in    
Wind  
Wind Speed 8 mph (WNW)    
Max Wind Speed 23 mph    
Max Gust Speed 26 mph    
Visibility 10 miles    
Events      
T = Trace of Precipitation, MM = Missing Value Source: NWS Daily Summary

Daily Weather History Graph

Daily Weather History Graph

Search for Another Location

Airport or City:

Trip Planner

Search our weather history database for the weather conditions in past years. The results will help you decide how hot, cold, wet, or windy it might be!

Date:

Astronomy

May. 16, 2014 Rise Set
Actual Time 6:02 AM MDT 8:05 PM MDT
Civil Twilight 5:34 AM MDT 8:33 PM MDT
Nautical Twilight 4:59 AM MDT 9:07 PM MDT
Astronomical Twilight 4:23 AM MDT 9:44 PM MDT
Moon 10:14 PM MDT (5/16) 7:47 AM MDT (5/16)
Length of Visible Light 14h 59m
Length of Day
14h 02m
Waning Gibbous, 95% of the Moon is Illuminated
May 16
Waning Gibbous
May 21
Last Quarter
May 28
New
Jun 5
First Quarter
Jun 12
Full

Hourly Weather History & Observations

Time (MDT) Temp. Windchill Dew Point Humidity Pressure Visibility Wind Dir Wind Speed Gust Speed Precip Events Conditions
12:15 AM 57.9 °F - 17.1 °F 20% 30.24 in 10.0 mi WNW 12.7 mph - N/A   Clear
12:35 AM 54.7 °F - 16.5 °F 22% 30.24 in 10.0 mi WNW 9.2 mph - N/A   Clear
12:55 AM 53.2 °F - 16.5 °F 24% 30.25 in 10.0 mi WNW 9.2 mph - N/A   Clear
1:15 AM 53.4 °F - 16.5 °F 23% 30.25 in 10.0 mi NW 11.5 mph - N/A   Clear
1:35 AM 56.5 °F - 17.4 °F 22% 30.25 in 10.0 mi NW 11.5 mph - N/A   Clear
1:55 AM 54.5 °F - 17.4 °F 23% 30.24 in 10.0 mi NW 11.5 mph - N/A   Clear
2:15 AM 56.3 °F - 17.6 °F 22% 30.24 in 10.0 mi NW 9.2 mph - N/A   Clear
2:35 AM 54.7 °F - 17.6 °F 23% 30.23 in 10.0 mi NW 11.5 mph - N/A   Clear
2:55 AM 54.1 °F - 18.0 °F 24% 30.23 in 10.0 mi NNE 3.5 mph - N/A   Clear
3:15 AM 53.1 °F - 17.4 °F 25% 30.23 in 10.0 mi Calm Calm - N/A   Clear
3:35 AM 54.9 °F - 18.1 °F 24% 30.23 in 10.0 mi Calm Calm - N/A   Clear
3:55 AM 56.3 °F - 18.3 °F 23% 30.23 in 10.0 mi ENE 3.5 mph - N/A   Clear
4:15 AM 52.9 °F - 17.4 °F 25% 30.22 in 10.0 mi Calm Calm - N/A   Clear
4:35 AM 50.2 °F - 16.3 °F 26% 30.22 in 10.0 mi Calm Calm - N/A   Clear
4:55 AM 41.9 °F 40.0 °F 13.6 °F 32% 30.22 in 10.0 mi WNW 3.5 mph - N/A   Clear
5:15 AM 42.8 °F - 14.4 °F 32% 30.23 in 10.0 mi Calm Calm - N/A   Clear
5:35 AM 44.2 °F - 14.7 °F 30% 30.23 in 10.0 mi Calm Calm - N/A   Clear
5:50 AM 39.2 °F - 12.2 °F 33% 30.23 in 10.0 mi Calm Calm - N/A   Partly Cloudy
6:48 AM 46.4 °F - 15.8 °F 29% 30.24 in 10.0 mi Calm Calm - N/A   Scattered Clouds
7:49 AM 55.4 °F - 17.6 °F 23% 30.25 in 10.0 mi Calm Calm - N/A   Scattered Clouds
8:48 AM 59.0 °F - 19.4 °F 22% 30.25 in 10.0 mi East 5.8 mph - N/A   Mostly Cloudy
9:49 AM 62.6 °F - 19.4 °F 19% 30.25 in 10.0 mi Variable 4.6 mph - N/A   Scattered Clouds
10:50 AM 66.2 °F - 19.4 °F 17% 30.24 in 10.0 mi Variable 4.6 mph - N/A   Scattered Clouds
11:50 AM 71.6 °F - 21.2 °F 15% 30.21 in 10.0 mi SSE 8.1 mph - N/A   Scattered Clouds
12:48 PM 73.4 °F - 19.4 °F 13% 30.17 in 10.0 mi Calm Calm - N/A   Scattered Clouds
1:45 PM 78.8 °F - 21.2 °F 12% 30.14 in 10.0 mi SSW 12.7 mph - N/A   Mostly Cloudy
2:50 PM 78.8 °F - 19.4 °F 11% 30.11 in 10.0 mi WSW 12.7 mph - N/A   Mostly Cloudy
3:48 PM 80.6 °F - 17.6 °F 10% 30.08 in 10.0 mi WNW 13.8 mph 26.5 mph N/A   Mostly Cloudy
4:48 PM 80.6 °F - 17.6 °F 10% 30.06 in 10.0 mi WNW 23.0 mph - N/A   Mostly Cloudy
5:48 PM 80.6 °F - 17.6 °F 10% 30.05 in 10.0 mi WNW 23.0 mph - N/A   Mostly Cloudy
6:50 PM 78.8 °F - 17.6 °F 10% 30.03 in 10.0 mi NW 18.4 mph 23.0 mph N/A   Mostly Cloudy
7:50 PM 75.2 °F - 17.6 °F 11% 30.05 in 10.0 mi WNW 11.5 mph - N/A   Mostly Cloudy
8:48 PM 71.6 °F - 17.6 °F 13% 30.06 in 10.0 mi West 8.1 mph - N/A   Clear
10:15 PM 64.8 °F - 18.5 °F 17% 30.08 in 10.0 mi WNW 8.1 mph - N/A   Clear
10:55 PM 63.5 °F - 18.1 °F 17% 30.08 in 10.0 mi WNW 10.4 mph - N/A   Clear
11:15 PM 64.0 °F - 18.0 °F 17% 30.08 in 10.0 mi NW 10.4 mph - N/A   Clear
11:35 PM 63.9 °F - 17.8 °F 17% 30.08 in 10.0 mi NW 10.4 mph - N/A   Clear
11:55 PM 66.2 °F - 17.8 °F 16% 30.09 in 10.0 mi NW 11.5 mph - N/A   Clear